Retour au catalogue

STARLINK-4494

ActifCommunicationsVLEO
NORAD 53558·PAYLOAD·🇺🇸 United States

Lancé Aug 19, 2022 depuis Cape Canaveral Space Force Station

Loading…

Prochains Passages (prochaines 24 heures)

TLE

FraisSource: CelesTrak SupGP

Époque: Sep 14, 2026, 22:01 UTC

1 53558C 22101AH  26257.91784722  .00037686  00000+0  11138-2 0  2576
2 53558  53.1579 279.9537 0001178  88.7692 186.9469 15.34361070    11

Suivez STARLINK-4494 en temps réel avec AllMySat

Download on the App Store